Location: Larkspur
(54.4391°N, 113.7691°W)
Time: 01:12:11
(UTC+00:00)

YUBILEINY - Pass Details

Date: 07 December 2023
Orbit: 1479 x 1508 km, 82.5° (Epoch: 03 March)

Event Time Altitude Azimuth Distance (km) Brightness Sun altitude
Rises 06:15:20 0° 345° (NNW) 4,633 ? -55.5°
Reaches altitude 10° 06:19:33 10° 327° (NNW) 3,643 ? -55.8°
Enters shadow 06:23:23 16° 301° (WNW) 3,171 ? -56.0°
